Regional Weather Roundup
Issued by NWS

Home | Current Version | Previous Version | Text Only | Print | Product List | Glossary Off
Versions: 1 2 3 4 5 6 7 8 9 10 11 12 13 14 15 16 17 18 19 20 21 22 23 24 25 26 27 28 29 30 31 32 33 34 35 36 37 38 39 40 41 42 43 44 45 46 47 48 49 50

000
ASUS43 KTOP 262108
RWRKS

WEATHER ROUNDUP FOR KANSAS
NATIONAL WEATHER SERVICE GOODLAND KS
400 PM CDT SUN MAR 26 2017

NOTE:  "FAIR" INDICATES FEW OR NO CLOUDS BELOW 12,000 FEET WITH NO
SIGNIFICANT WEATHER AND/OR OBSTRUCTIONS TO VISIBILITY.

KSZ001>006-013>018-027>032-041>047-262200-
NORTHWEST KANSAS

CITY           SKY/WX    TMP DP  RH WIND       PRES   REMARKS
GOODLAND       LGT RAIN  45  43  93 NE12      29.85F
HAYS           LGT RAIN  46  44  93 NE14      29.83R
HILL CITY      LGT RAIN  46  43  89 NE9       29.86F FOG
RUSSELL        TSTM      47  41  80 NE16      29.81F
$$

KSZ061>065-074>080-084>089-262200-
SOUTHWEST KANSAS

CITY           SKY/WX    TMP DP  RH WIND       PRES   REMARKS
DODGE CITY     CLOUDY    50  42  74 NE14      29.80R
ELKHART          N/A     44  33  65 NW13        N/A
GARDEN CITY    CLOUDY    44  43  96 E12       29.82S FOG
GREAT BEND     CLOUDY    50  43  77 E12       29.83R
LIBERAL        CLOUDY    54  39  58 NW22      29.78R
PRATT          CLOUDY    51  43  72 E8        29.80R
$$

KSZ066>073-081>083-090>101-262200-
SOUTHEAST KANSAS

CITY           SKY/WX    TMP DP  RH WIND       PRES   REMARKS
CHANUTE        CLOUDY    63  48  58 SE8       29.85F
COFFEYVILLE    CLOUDY    67  49  52 SE13      29.82F
HUTCHINSON     RAIN      52  46  80 E9        29.80S
MEDICINE LODGE   N/A     61  45  55 E8        29.75R
NEWTON         CLOUDY    52  47  83 E14G20    29.77F
PARSONS        MOSUNNY   66  48  52 VRB7      29.84F
WICHITA INTL   TSTM      58  48  69 NW12      29.79R
WICHITA JABRA  CLOUDY    57  47  69 E15G25    29.74F
WICHITA MCCONL CLOUDY    60  46  58 E15       29.73F
WINFIELD       CLOUDY    65  45  48 E14G23    29.73F
$$

KSZ007>012-019>026-033>040-048>060-102>105-262200-
NORTHEAST KANSAS

CITY           SKY/WX    TMP DP  RH WIND       PRES   REMARKS
CONCORDIA      CLOUDY    50  44  80 NE8       29.86F
EMPORIA        CLOUDY    53  48  83 E9        29.85F
LAWRENCE       CLOUDY    53  45  74 N5        29.90F
MANHATTAN      CLOUDY    52  45  77 NE10      29.87F
MARYSVILLE     CLOUDY    48  43  81 CALM      29.89F
OLATHE IND     CLOUDY    51  44  77 CALM      29.90F
OLATHE EXE     CLOUDY    51  45  79 W7        29.90S
SALINA         CLOUDY    53  44  71 NE15      29.82F
TOPEKA BILLARD CLOUDY    53  46  77 VRB3      29.89F
TOPEKA FORBES  CLOUDY    53  45  74 N5        29.89F
$$




USA.gov is the U.S. government's official web portal to all federal, state and local government web resources and services.